sat.trackr.live / text

‹ back to catalog

STARLINK-32601

NORAD 61973 · 2024-210Q

PAYLOAD ACTIVE UNKNOWN

§ Identity

Operator
Country
US
Launch date
2024-11-14
Launch site
AFETR
Launch vehicle
Mass (kg)
RCS (m²)

Purposes: comms

External: N2YO · Heavens-Above · Gunter

§ Orbital elements

Epoch: 2026-05-25T04:32:32.203104Z

Period
94.27 min
Inclination
42.9976°
Eccentricity
0.0000469
Mean motion
15.27594329 rev/d
Perigee alt
482.7 km
Apogee alt
483.3 km
Semi-major
6,861.1 km
B*
7.2016e-4
RAAN
107.4462°
Arg perigee
219.8625°
Mean anomaly
140.2193°
Rev number
8,658

§ Raw data

STARLINK-326011 61973U 24210Q   26145.18926161  .00019617  00000+0  72016-3 0  99992 61973  42.9976 107.4462 0000469 219.8625 140.2193 15.27594329 86585

JSON: /api/v1/satellites/61973 · /tle

For live sub-satellite position, see the globe view (requires WebGL).

§ Visibility from observer

Set your observer location to see the next 7 days of passes ≥ 10°. The values pass through the URL so the page stays shareable.

No JS? Fill the form by hand. The geolocation button needs JavaScript.